When you browse on this site, cookies collect data to enhance your experience and personalize the content and advertising you see.
Visit our Privacy Policy to learn more. By continuing to use the site, you agree to this use of cookies and data.
  • En España
  • Lista de países
  • Para 7 días
  • Temperatura del agua
  • El tiempo en el mapa
  • Informadores
  • user-avatar
    Iniciar sesión

    Tiempo cada hora Bialystok

    Hoy, 4 Junio, Jueves

    Tiempo Temperatura Precipitaciones Viento Presión Humedad
    00:00 +8°C° 0 mm 1 mps 739 mmHg 94%
    01:00 +8°C° 0 mm 1 mps 739 mmHg 95%
    02:00 +7°C° 0 mm 1 mps 739 mmHg 96%
    03:00 +7°C° 0 mm 1 mps 739 mmHg 96%
    04:00 +7°C° 0 mm 1 mps 738 mmHg 96%
    05:00 +7°C° 0 mm 1 mps 738 mmHg 96%
    06:00 +9°C° 0 mm 1 mps 738 mmHg 91%
    07:00 +11°C° 0 mm 1 mps 738 mmHg 86%
    08:00 +12°C° 0 mm 0 mps 738 mmHg 81%
    09:00 +13°C° 0.5 mm 1 mps 738 mmHg 77%
    10:00 +14°C° 0.5 mm 1 mps 738 mmHg 74%
    11:00 +15°C° 0.5 mm 1 mps 738 mmHg 70%
    12:00 +16°C° 0.6 mm 1 mps 737 mmHg 69%
    13:00 +16°C° 0.6 mm 2 mps 737 mmHg 67%
    14:00 +18°C° 0 mm 1 mps 738 mmHg 64%
    15:00 +18°C° 0.2 mm 1 mps 737 mmHg 62%
    16:00 +18°C° 0.2 mm 1 mps 737 mmHg 60%
    17:00 +18°C° 0.2 mm 1 mps 737 mmHg 58%
    18:00 +16°C° 0 mm 1 mps 737 mmHg 63%
    19:00 +15°C° 0 mm 1 mps 737 mmHg 69%
    20:00 +13°C° 0 mm 0 mps 736 mmHg 75%
    21:00 +11°C° 0 mm 0 mps 737 mmHg 78%
    22:00 +11°C° 0 mm 1 mps 737 mmHg 81%
    23:00 +10°C° 0 mm 1 mps 737 mmHg 85%

    Mañana, 5 Junio, Viernes

    Tiempo Temperatura Precipitaciones Viento Presión Humedad
    00:00 +10°C° 0 mm 1 mps 737 mmHg 86%
    01:00 +9°C° 0 mm 1 mps 737 mmHg 88%
    02:00 +8°C° 0 mm 2 mps 737 mmHg 90%
    03:00 +8°C° 0 mm 2 mps 737 mmHg 90%
    04:00 +8°C° 0 mm 2 mps 736 mmHg 91%
    05:00 +8°C° 0 mm 3 mps 736 mmHg 91%
    06:00 +10°C° 0 mm 3 mps 736 mmHg 85%
    07:00 +12°C° 0 mm 4 mps 736 mmHg 79%
    08:00 +14°C° 0 mm 5 mps 736 mmHg 73%
    09:00 +16°C° 0 mm 5 mps 736 mmHg 71%
    10:00 +19°C° 0 mm 6 mps 735 mmHg 69%
    11:00 +20°C° 0 mm 6 mps 735 mmHg 67%
    12:00 +20°C° 0.2 mm 6 mps 735 mmHg 70%
    13:00 +21°C° 0.2 mm 6 mps 735 mmHg 73%
    14:00 +21°C° 0.2 mm 6 mps 734 mmHg 76%
    15:00 +21°C° 0.9 mm 6 mps 734 mmHg 78%
    16:00 +21°C° 0.9 mm 6 mps 734 mmHg 81%
    17:00 +21°C° 0.9 mm 5 mps 734 mmHg 83%
    18:00 +20°C° 0.7 mm 5 mps 735 mmHg 86%
    19:00 +19°C° 0.7 mm 4 mps 735 mmHg 89%
    20:00 +17°C° 0.7 mm 3 mps 735 mmHg 92%
    21:00 +16°C° 0.2 mm 3 mps 736 mmHg 94%
    22:00 +14°C° 0.2 mm 3 mps 736 mmHg 95%
    23:00 +15°C° 0.2 mm 2 mps 737 mmHg 96%

    Pasado mañana, 6 Junio, Sábado

    Tiempo Temperatura Precipitaciones Viento Presión Humedad
    00:00 +14°C° 1.2 mm 2 mps 737 mmHg 97%
    01:00 +14°C° 1.2 mm 2 mps 737 mmHg 97%
    02:00 +14°C° 1.2 mm 2 mps 737 mmHg 98%
    03:00 +14°C° 0.1 mm 2 mps 737 mmHg 98%
    04:00 +12°C° 0.1 mm 3 mps 738 mmHg 98%
    05:00 +12°C° 0.1 mm 4 mps 738 mmHg 97%
    06:00 +13°C° 0 mm 5 mps 739 mmHg 93%
    07:00 +14°C° 0 mm 6 mps 739 mmHg 89%
    08:00 +15°C° 0 mm 7 mps 740 mmHg 84%
    09:00 +16°C° 0.1 mm 7 mps 740 mmHg 79%
    10:00 +17°C° 0.1 mm 7 mps 741 mmHg 73%
    11:00 +17°C° 0.1 mm 7 mps 741 mmHg 68%
    12:00 +18°C° 0.1 mm 7 mps 742 mmHg 64%
    13:00 +20°C° 0.1 mm 7 mps 742 mmHg 60%
    14:00 +20°C° 0.1 mm 7 mps 743 mmHg 56%
    15:00 +21°C° 0 mm 6 mps 743 mmHg 58%
    16:00 +21°C° 0 mm 6 mps 743 mmHg 60%
    17:00 +21°C° 0 mm 5 mps 743 mmHg 62%
    18:00 +20°C° 0 mm 4 mps 743 mmHg 67%
    19:00 +19°C° 0 mm 4 mps 744 mmHg 71%
    20:00 +18°C° 0 mm 3 mps 744 mmHg 75%
    21:00 +17°C° 0 mm 3 mps 744 mmHg 78%
    22:00 +16°C° 0 mm 3 mps 744 mmHg 81%
    23:00 +14°C° 0 mm 3 mps 745 mmHg 84%

    7 Junio, Domingo

    Tiempo Temperatura Precipitaciones Viento Presión Humedad
    00:00 +14°C° 0 mm 3 mps 745 mmHg 85%
    01:00 +14°C° 0 mm 3 mps 745 mmHg 86%
    02:00 +14°C° 0 mm 3 mps 745 mmHg 87%
    03:00 +14°C° 0 mm 3 mps 745 mmHg 88%
    04:00 +14°C° 0 mm 3 mps 745 mmHg 89%
    05:00 +14°C° 0 mm 3 mps 745 mmHg 91%
    06:00 +15°C° 0.1 mm 4 mps 744 mmHg 89%
    07:00 +18°C° 0.1 mm 4 mps 744 mmHg 87%
    08:00 +19°C° 0.1 mm 5 mps 744 mmHg 85%
    09:00 +20°C° 0.1 mm 5 mps 744 mmHg 83%
    10:00 +21°C° 0.1 mm 5 mps 744 mmHg 82%
    11:00 +22°C° 0.1 mm 5 mps 744 mmHg 81%
    12:00 +23°C° 0.1 mm 5 mps 744 mmHg 77%
    13:00 +25°C° 0.1 mm 5 mps 744 mmHg 72%
    14:00 +27°C° 0.1 mm 5 mps 744 mmHg 68%
    15:00 +26°C° 0.9 mm 4 mps 744 mmHg 70%
    16:00 +26°C° 0.9 mm 4 mps 743 mmHg 71%
    17:00 +26°C° 0.9 mm 4 mps 743 mmHg 73%
    18:00 +24°C° 1.7 mm 3 mps 744 mmHg 79%
    19:00 +21°C° 1.7 mm 2 mps 744 mmHg 85%
    20:00 +21°C° 1.7 mm 1 mps 744 mmHg 91%
    21:00 +20°C° 0.1 mm 1 mps 744 mmHg 92%
    22:00 +20°C° 0.1 mm 1 mps 745 mmHg 92%
    23:00 +19°C° 0.1 mm 1 mps 745 mmHg 92%

    8 Junio, Lunes

    Tiempo Temperatura Precipitaciones Viento Presión Humedad
    00:00 +19°C° 0.2 mm 1 mps 745 mmHg 93%
    01:00 +18°C° 0.2 mm 1 mps 745 mmHg 94%
    02:00 +18°C° 0.2 mm 1 mps 745 mmHg 94%
    03:00 +18°C° 0.4 mm 1 mps 745 mmHg 94%
    04:00 +17°C° 0.4 mm 2 mps 745 mmHg 94%
    05:00 +17°C° 0.4 mm 2 mps 745 mmHg 95%
    06:00 +18°C° 0 mm 2 mps 745 mmHg 92%
    07:00 +20°C° 0 mm 3 mps 745 mmHg 90%
    08:00 +21°C° 0 mm 3 mps 745 mmHg 88%
    09:00 +22°C° 0.7 mm 3 mps 745 mmHg 83%
    10:00 +25°C° 0.7 mm 4 mps 745 mmHg 77%
    11:00 +26°C° 0.7 mm 4 mps 745 mmHg 72%
    12:00 +27°C° 0.5 mm 5 mps 745 mmHg 69%
    13:00 +27°C° 0.5 mm 5 mps 745 mmHg 65%
    14:00 +28°C° 0.5 mm 6 mps 745 mmHg 62%
    15:00 +28°C° 0.7 mm 5 mps 745 mmHg 66%
    16:00 +27°C° 0.7 mm 5 mps 744 mmHg 69%
    17:00 +27°C° 0.7 mm 4 mps 744 mmHg 72%
    18:00 +26°C° 1.1 mm 3 mps 744 mmHg 77%
    19:00 +24°C° 1.1 mm 3 mps 744 mmHg 81%
    20:00 +23°C° 1.1 mm 2 mps 744 mmHg 86%
    21:00 +21°C° 1.1 mm 3 mps 744 mmHg 87%
    22:00 +20°C° 1.1 mm 3 mps 744 mmHg 88%
    23:00 +19°C° 1.1 mm 3 mps 745 mmHg 89%

    9 Junio, Martes

    Tiempo Temperatura Precipitaciones Viento Presión Humedad
    00:00 +19°C° 0.1 mm 3 mps 745 mmHg 91%
    01:00 +18°C° 0.1 mm 3 mps 744 mmHg 92%
    02:00 +18°C° 0.1 mm 3 mps 744 mmHg 94%
    03:00 +18°C° 0 mm 3 mps 744 mmHg 94%
    04:00 +18°C° 0 mm 3 mps 744 mmHg 95%
    05:00 +18°C° 0 mm 3 mps 744 mmHg 96%
    06:00 +19°C° 0.1 mm 3 mps 745 mmHg 93%
    07:00 +20°C° 0.1 mm 3 mps 745 mmHg 91%
    08:00 +21°C° 0.1 mm 3 mps 745 mmHg 88%
    09:00 +24°C° 1.2 mm 3 mps 745 mmHg 83%
    10:00 +25°C° 1.2 mm 2 mps 745 mmHg 77%
    11:00 +26°C° 1.2 mm 2 mps 745 mmHg 72%
    12:00 +27°C° 1 mm 2 mps 745 mmHg 69%
    13:00 +27°C° 1 mm 2 mps 745 mmHg 66%
    14:00 +28°C° 1 mm 2 mps 745 mmHg 63%
    15:00 +27°C° 1.2 mm 2 mps 745 mmHg 66%
    16:00 +27°C° 1.2 mm 2 mps 745 mmHg 70%
    17:00 +26°C° 1.2 mm 2 mps 745 mmHg 74%
    18:00 +25°C° 0.2 mm 2 mps 745 mmHg 78%
    19:00 +24°C° 0.2 mm 2 mps 745 mmHg 82%
    20:00 +23°C° 0.2 mm 1 mps 745 mmHg 86%
    21:00 +22°C° 0.7 mm 1 mps 745 mmHg 89%
    22:00 +22°C° 0.7 mm 1 mps 746 mmHg 91%
    23:00 +21°C° 0.7 mm 1 mps 746 mmHg 94%
    Mostrar más